GW0882 Weather Reports


time (UTC)temp
F
wind
direction
speed
knots
gust
knots
rain 1hr
in
rain 24hr
in
rain mn
in
humidity
%
barometer
mb
20260505193039 55 0 0.0 3.5 0.00 0.00 0.00 60 1011.5
20260505191539 56 0 0.0 2.6 0.00 0.00 0.00 59 1011.3
20260505190036 56 47 0.9 4.3 0.00 0.00 0.00 59 1011.4
20260505184535 56 0 0.0 2.6 0.00 0.00 0.00 57 1011.2
20260505183038 57 71 0.0 4.3 0.00 0.00 0.00 57 1011.2
20260505181540 57 70 0.0 3.5 0.00 0.00 0.00 56 1011.2
20260505180047 58 0 0.9 8.7 0.00 0.00 0.00 56 1011.3
20260505174541 58 54 0.0 4.3 0.00 0.00 0.00 54 1011.3
20260505173035 59 0 1.7 8.7 0.00 0.00 0.00 53 1011.2
20260505171544 59 28 1.7 6.1 0.00 0.00 0.00 54 1011.2
20260505170040 60 60 1.7 7.0 0.00 0.00 0.00 51 1011.3
20260505164541 60 65 2.6 8.7 0.00 0.00 0.00 51 1011.2
20260505163034 60 88 1.7 7.0 0.00 0.00 0.00 50 1011.3
20260505161533 60 76 2.6 9.6 0.00 0.00 0.00 47 1011.4
20260505153036 61 62 2.6 8.7 0.00 0.00 0.00 44 1011.5
20260505151541 62 59 0.9 12.2 0.00 0.00 0.00 43 1011.5
20260505124541 64 80 2.6 8.7 0.00 0.00 0.00 50 1011.9
20260505123040 65 0 2.6 12.2 0.00 0.00 0.00 51 1011.9
20260505121539 63 0 0.9 12.2 0.00 0.00 0.00 55 1011.9
20260505120036 60 40 4.3 10.4 0.00 0.00 0.00 55 1012.0
20260505114541 61 0 0.0 13.9 0.00 0.00 0.00 55 1012.0
20260505113047 62 48 4.3 12.2 0.00 0.00 0.00 52 1012.2
20260505111537 62 40 2.6 10.4 0.00 0.00 0.00 58 1012.3
20260505101556 59 351 1.7 7.0 0.00 0.00 0.00 69 1012.3
20260505100055 57 0 0.9 9.6 0.00 0.00 0.00 69 1012.4
20260505094535 56 0 0.9 7.8 0.00 0.00 0.00 70 1012.6
20260505093035 56 5 0.9 7.0 0.00 0.00 0.00 70 1012.6
20260505091536 57 16 0.9 5.2 0.00 0.00 0.00 69 1012.7
20260505090036 55 30 3.5 8.7 0.00 0.00 0.00 72 1012.6
20260505084535 54 320 0.9 9.6 0.00 0.00 0.00 72 1012.7
20260505083038 54 313 0.0 7.8 0.00 0.00 0.00 74 1012.7
20260505081536 54 46 0.9 5.2 0.00 0.00 0.00 76 1012.7
20260505080046 53 310 0.9 7.8 0.00 0.00 0.00 78 1012.8
20260505074535 53 293 0.0 3.5 0.00 0.00 0.00 78 1012.8
20260505073104 53 0 0.0 7.8 0.00 0.00 0.00 78 1012.7
20260505071542 53 0 0.9 4.3 0.00 0.00 0.00 80 1012.5
20260505070037 53 0 0.0 3.5 0.00 0.00 0.00 81 1012.6
20260505064545 52 30 0.0 5.2 0.00 0.00 0.00 83 1012.8
20260505063047 52 84 0.9 5.2 0.00 0.00 0.00 86 1012.9
20260505061541 51 0 0.0 3.5 0.00 0.00 0.00 87 1013.0
20260505060046 50 0 0.9 7.0 0.00 0.00 0.00 88 1012.8
20260505054544 50 309 0.0 4.3 0.00 0.00 0.00 88 1012.8
20260505053046 50 0 0.0 1.7 0.00 0.00 0.00 88 1012.8
20260505051541 50 0 0.0 3.5 0.00 0.00 0.00 88 1012.8
20260505041539 50 0 0.0 7.8 0.00 0.00 0.00 87 1013.0
20260505040040 50 61 1.7 4.3 0.00 0.00 0.00 87 1013.0
20260505034546 50 32 0.0 2.6 0.00 0.00 0.00 87 1013.2
20260505033036 50 64 0.0 2.6 0.00 0.00 0.00 87 1013.2
20260505031547 51 0 0.0 5.2 0.00 0.00 0.00 87 1013.3
20260505030042 51 0 0.0 7.0 0.00 0.00 0.00 87 1013.2
20260505024536 51 47 3.5 9.6 0.00 0.00 0.00 87 1013.3
20260505023037 51 55 0.9 4.3 0.00 0.00 0.00 87 1013.5
20260505021537 51 0 0.9 4.3 0.00 0.00 0.00 87 1013.5
20260505020041 51 0 0.0 4.3 0.00 0.00 0.00 86 1013.6
20260505014540 51 0 0.0 3.5 0.00 0.00 0.00 86 1013.6
20260505013037 52 59 0.0 6.1 0.00 0.00 0.00 86 1013.9
20260505011538 52 53 0.0 2.6 0.00 0.00 0.00 86 1013.7
20260505010100 52 0 0.0 4.3 0.00 0.00 0.00 86 1014.0
20260505004541 52 0 0.0 4.3 0.00 0.00 0.00 86 1014.1
20260505003041 52 64 1.7 5.2 0.00 0.00 0.00 86 1014.3
20260505001536 52 75 0.9 7.0 0.00 0.00 0.00 86 1014.3
20260505000043 52 0 0.9 7.8 0.00 0.00 0.00 86 1014.3
20260504234536 52 0 0.0 4.3 0.00 0.00 0.00 86 1014.3
20260504233035 53 59 0.9 7.0 0.00 0.00 0.00 86 1014.2
20260504231544 53 0 0.0 3.5 0.00 0.00 0.00 86 1014.1
20260504230044 53 0 0.0 6.1 0.00 0.00 0.00 86 1014.3
20260504224536 53 0 0.0 2.6 0.00 0.00 0.00 85 1014.5
20260504223036 53 71 0.9 4.3 0.00 0.00 0.00 85 1014.5
20260504221548 54 60 0.0 0.9 0.00 0.00 0.00 84 1014.4
20260504220039 54 0 0.0 2.6 0.00 0.00 0.00 83 1014.5
20260504214535 54 0 0.0 1.7 0.00 0.00 0.00 83 1014.4
20260504213047 54 0 0.0 3.5 0.00 0.00 0.00 83 1014.4
20260504211540 55 0 0.0 4.3 0.00 0.00 0.00 82 1014.5
20260504210037 55 49 0.0 5.2 0.00 0.00 0.00 82 1014.5
20260504204538 55 40 0.0 3.5 0.00 0.00 0.00 82 1014.6
20260504203048 55 0 0.0 0.9 0.00 0.00 0.00 81 1014.5
20260504201535 56 0 0.0 0.9 0.00 0.00 0.00 80 1014.4
20260504200036 56 0 0.0 1.7 0.00 0.00 0.00 80 1014.3
20260504194544 56 0 0.0 1.7 0.00 0.00 0.00 79 1014.3